Time,TemperatureF,DewpointF,PressureIn,WindDirection,WindDirectionDegrees,WindSpeedMPH,WindSpeedGustMPH,Humidity,HourlyPrecipIn,Conditions,Clouds,dailyrainin,SoftwareType,DateUTC
2013-05-17 00:01:00,48.8,41.6,29.70,ENE,60,10.4,10.4,76,0.00,RA,,0.00,WeatherDisplay:10.37,2013-05-16 23:01:00,
2013-05-17 00:06:00,48.7,41.5,29.70,NNE,15,9.2,9.2,76,0.00,RA,,0.00,WeatherDisplay:10.37,2013-05-16 23:06:00,
2013-05-17 00:11:00,48.4,41.5,29.70,NNE,12,11.5,11.5,77,0.00,CLR,,0.00,WeatherDisplay:10.37,2013-05-16 23:11:00,
2013-05-17 00:16:00,48.1,41.2,29.70,ESE,112,5.8,5.8,77,0.00,CLR,,0.00,WeatherDisplay:10.37,2013-05-16 23:16:00,
2013-05-17 00:21:00,47.9,41.4,29.70,North,9,9.2,9.2,78,0.00,CLR,,0.00,WeatherDisplay:10.37,2013-05-16 23:21:00,
2013-05-17 00:26:00,47.6,41.1,29.70,NNE,23,9.2,9.2,78,0.00,CLR,,0.00,WeatherDisplay:10.37,2013-05-16 23:26:00,
2013-05-17 00:31:00,47.4,41.2,29.70,NNE,32,5.8,5.8,79,0.00,CLR,,0.00,WeatherDisplay:10.37,2013-05-16 23:31:00,
2013-05-17 00:36:00,47.4,41.2,29.71,NNW,348,6.9,6.9,79,0.00,CLR,,0.00,WeatherDisplay:10.37,2013-05-16 23:36:00,
2013-05-17 00:41:00,47.3,41.1,29.71,NE,40,5.0,5.0,79,0.00,CLR,,0.00,WeatherDisplay:10.37,2013-05-16 23:41:00,
2013-05-17 00:46:00,47.3,41.1,29.71,North,9,8.1,8.1,79,0.00,CLR,,0.00,WeatherDisplay:10.37,2013-05-16 23:46:00,
2013-05-17 00:51:00,47.3,40.8,29.71,NE,47,9.2,9.2,78,0.00,CLR,,0.00,WeatherDisplay:10.37,2013-05-16 23:51:00,
2013-05-17 00:56:00,47.3,40.8,29.71,NNE,16,9.2,9.2,78,0.00,CLR,,0.00,WeatherDisplay:10.37,2013-05-16 23:56:00,
2013-05-17 01:01:00,47.3,40.8,29.72,ENE,74,5.8,5.8,78,0.00,CLR,,0.00,WeatherDisplay:10.37,2013-05-17 00:01:00,
2013-05-17 01:06:00,47.2,40.7,29.72,North,1,4.6,4.6,78,0.00,CLR,,0.00,WeatherDisplay:10.37,2013-05-17 00:06:00,
2013-05-17 01:11:00,47.1,40.6,29.72,NE,44,3.5,4.3,78,0.00,CLR,,0.00,WeatherDisplay:10.37,2013-05-17 00:11:00,
2013-05-17 01:16:00,46.9,40.7,29.72,North,8,6.9,6.9,79,0.00,CLR,,0.00,WeatherDisplay:10.37,2013-05-17 00:16:00,
2013-05-17 01:21:00,46.9,40.7,29.72,North,355,5.8,5.8,79,0.00,CLR,,0.00,WeatherDisplay:10.37,2013-05-17 00:21:00,
2013-05-17 01:26:00,47.0,40.8,29.72,North,349,6.9,6.9,79,0.00,CLR,,0.00,WeatherDisplay:10.37,2013-05-17 00:26:00,
2013-05-17 01:31:00,46.8,40.6,29.72,NNE,15,6.9,6.9,79,0.00,CLR,,0.00,WeatherDisplay:10.37,2013-05-17 00:31:00,
2013-05-17 01:36:00,46.6,40.8,29.72,NNE,29,5.0,5.0,80,0.00,CLR,,0.00,WeatherDisplay:10.37,2013-05-17 00:36:00,
2013-05-17 01:41:00,46.4,40.9,29.72,NNW,340,10.4,10.4,81,0.00,CLR,,0.00,WeatherDisplay:10.37,2013-05-17 00:41:00,
2013-05-17 01:46:00,46.2,40.7,29.72,NE,54,9.0,9.0,81,0.00,CLR,,0.00,WeatherDisplay:10.37,2013-05-17 00:46:00,
2013-05-17 01:51:00,46.1,40.6,29.72,North,2,11.5,11.5,81,0.00,CLR,,0.00,WeatherDisplay:10.37,2013-05-17 00:51:00,
2013-05-17 01:56:00,46.0,40.8,29.73,ENE,75,9.2,9.2,82,0.00,CLR,,0.00,WeatherDisplay:10.37,2013-05-17 00:56:00,
2013-05-17 02:01:00,46.0,40.8,29.73,North,2,6.9,6.9,82,0.00,CLR,,0.00,WeatherDisplay:10.37,2013-05-17 01:01:00,
2013-05-17 02:06:00,46.0,40.8,29.73,NE,41,6.9,6.9,82,0.00,CLR,,0.00,WeatherDisplay:10.37,2013-05-17 01:06:00,
2013-05-17 02:11:00,45.9,40.7,29.73,North,10,11.5,11.5,82,0.00,CLR,,0.00,WeatherDisplay:10.37,2013-05-17 01:11:00,
2013-05-17 02:16:00,45.8,40.6,29.73,NNE,33,12.7,12.7,82,0.00,CLR,,0.00,WeatherDisplay:10.37,2013-05-17 01:16:00,
2013-05-17 02:21:00,45.8,40.6,29.73,NNE,32,11.5,11.5,82,0.00,CLR,,0.00,WeatherDisplay:10.37,2013-05-17 01:21:00,
2013-05-17 02:26:00,45.7,40.5,29.73,North,9,11.5,11.5,82,0.00,CLR,,0.00,WeatherDisplay:10.37,2013-05-17 01:26:00,
2013-05-17 02:31:00,45.5,40.6,29.73,NE,34,9.2,9.2,83,0.00,CLR,,0.00,WeatherDisplay:10.37,2013-05-17 01:31:00,
2013-05-17 02:36:00,45.5,40.6,29.74,NNE,15,8.1,8.1,83,0.00,CLR,,0.00,WeatherDisplay:10.37,2013-05-17 01:36:00,
2013-05-17 02:41:00,45.3,40.4,29.74,NNW,347,8.1,8.1,83,0.00,CLR,,0.00,WeatherDisplay:10.37,2013-05-17 01:41:00,
2013-05-17 02:46:00,45.2,40.7,29.74,NE,53,8.1,8.1,84,0.00,CLR,,0.00,WeatherDisplay:10.37,2013-05-17 01:46:00,
2013-05-17 02:51:00,45.1,40.6,29.74,NE,36,8.0,8.0,84,0.00,CLR,,0.00,WeatherDisplay:10.37,2013-05-17 01:51:00,
2013-05-17 02:56:00,44.9,40.4,29.74,NNE,23,8.1,8.1,84,0.00,CLR,,0.00,WeatherDisplay:10.37,2013-05-17 01:56:00,
2013-05-17 03:01:00,44.8,40.3,29.74,NNE,18,6.9,6.9,84,0.00,CLR,,0.00,WeatherDisplay:10.37,2013-05-17 02:01:00,
2013-05-17 03:06:00,44.7,40.2,29.75,NW,313,6.9,6.9,84,0.00,CLR,,0.00,WeatherDisplay:10.37,2013-05-17 02:06:00,
2013-05-17 03:11:00,44.5,40.0,29.75,North,352,6.9,6.9,84,0.00,CLR,,0.00,WeatherDisplay:10.37,2013-05-17 02:11:00,
2013-05-17 03:16:00,44.4,39.9,29.75,North,8,6.9,6.9,84,0.00,CLR,,0.00,WeatherDisplay:10.37,2013-05-17 02:16:00,
2013-05-17 03:21:00,44.3,39.8,29.75,NW,309,3.5,3.5,84,0.00,CLR,,0.00,WeatherDisplay:10.37,2013-05-17 02:21:00,
2013-05-17 03:26:00,44.2,39.7,29.75,West,270,0.0,0.0,84,0.00,CLR,,0.00,WeatherDisplay:10.37,2013-05-17 02:26:00,
2013-05-17 03:31:00,44.2,40.0,29.75,WNW,282,1.2,0.0,85,0.00,CLR,,0.00,WeatherDisplay:10.37,2013-05-17 02:31:00,
2013-05-17 03:36:00,44.2,40.0,29.75,WNW,286,1.2,0.0,85,0.00,CLR,,0.00,WeatherDisplay:10.37,2013-05-17 02:36:00,
2013-05-17 03:41:00,44.3,40.1,29.75,WNW,295,2.3,2.3,85,0.00,CLR,,0.00,WeatherDisplay:10.37,2013-05-17 02:41:00,
2013-05-17 03:46:00,44.4,39.9,29.75,WNW,300,1.2,1.2,84,0.00,CLR,,0.00,WeatherDisplay:10.37,2013-05-17 02:46:00,
2013-05-17 03:51:00,44.5,40.0,29.75,WNW,297,1.2,1.2,84,0.00,CLR,,0.00,WeatherDisplay:10.37,2013-05-17 02:51:00,
2013-05-17 03:56:00,44.7,40.2,29.75,West,260,3.5,3.5,84,0.00,CLR,,0.00,WeatherDisplay:10.37,2013-05-17 02:56:00,
2013-05-17 04:01:00,44.6,39.8,29.76,WNW,296,2.3,2.3,83,0.00,CLR,,0.00,WeatherDisplay:10.37,2013-05-17 03:01:00,
2013-05-17 04:07:00,43.7,39.2,29.76,North,349,3.5,3.5,84,0.00,CLR,,0.00,WeatherDisplay:10.37,2013-05-17 03:07:00,
2013-05-17 04:12:00,43.6,39.4,29.77,ENE,72,2.3,2.3,85,0.00,CLR,,0.00,WeatherDisplay:10.37,2013-05-17 03:12:00,
2013-05-17 04:17:00,43.3,39.1,29.77,NNE,12,5.0,5.0,85,0.00,CLR,,0.00,WeatherDisplay:10.37,2013-05-17 03:17:00,
2013-05-17 04:22:00,43.3,39.4,29.77,ENE,78,6.0,6.0,86,0.00,CLR,,0.00,WeatherDisplay:10.37,2013-05-17 03:22:00,
2013-05-17 04:27:00,43.6,39.7,29.77,ESE,115,9.2,9.2,86,0.00,CLR,,0.00,WeatherDisplay:10.37,2013-05-17 03:27:00,
2013-05-17 04:32:00,43.4,39.2,29.78,NE,34,3.5,3.5,85,0.00,CLR,,0.00,WeatherDisplay:10.37,2013-05-17 03:32:00,
2013-05-17 04:37:00,43.6,39.7,29.78,NNE,20,9.2,9.2,86,0.00,CLR,,0.00,WeatherDisplay:10.37,2013-05-17 03:37:00,
2013-05-17 04:42:00,43.6,39.7,29.78,ENE,70,6.9,6.9,86,0.00,CLR,,0.00,WeatherDisplay:10.37,2013-05-17 03:42:00,
2013-05-17 04:47:00,43.7,39.8,29.78,ENE,75,6.9,6.9,86,0.00,CLR,,0.00,WeatherDisplay:10.37,2013-05-17 03:47:00,
2013-05-17 04:52:00,43.5,39.6,29.78,NE,55,6.9,6.9,86,0.00,CLR,,0.00,WeatherDisplay:10.37,2013-05-17 03:52:00,
2013-05-17 04:58:00,43.5,39.6,29.78,East,81,4.6,4.6,86,0.00,CLR,,0.00,WeatherDisplay:10.37,2013-05-17 03:58:00,
2013-05-17 05:01:00,43.6,39.7,29.78,ENE,68,4.6,4.6,86,0.00,CLR,,0.00,WeatherDisplay:10.37,2013-05-17 04:01:00,
2013-05-17 05:06:00,43.6,39.7,29.78,NNE,18,3.5,3.5,86,0.00,CLR,,0.00,WeatherDisplay:10.37,2013-05-17 04:06:00,
2013-05-17 05:11:00,43.5,39.9,29.78,East,86,4.6,4.6,87,0.00,CLR,,0.00,WeatherDisplay:10.37,2013-05-17 04:11:00,
2013-05-17 05:16:00,43.7,39.8,29.78,North,349,3.5,3.5,86,0.00,CLR,,0.00,WeatherDisplay:10.37,2013-05-17 04:16:00,
2013-05-17 05:21:00,43.6,39.7,29.78,East,79,5.8,5.8,86,0.00,CLR,,0.00,WeatherDisplay:10.37,2013-05-17 04:21:00,
2013-05-17 05:26:00,43.7,39.8,29.79,East,93,9.2,9.2,86,0.00,CLR,,0.00,WeatherDisplay:10.37,2013-05-17 04:26:00,
2013-05-17 05:31:00,43.9,40.0,29.79,ESE,105,11.5,11.5,86,0.00,CLR,,0.00,WeatherDisplay:10.37,2013-05-17 04:31:00,
2013-05-17 05:36:00,43.6,39.7,29.79,ENE,71,6.0,6.0,86,0.00,CLR,,0.00,WeatherDisplay:10.37,2013-05-17 04:36:00,
2013-05-17 05:41:00,43.3,39.4,29.79,NE,39,3.5,3.5,86,0.00,CLR,,0.00,WeatherDisplay:10.37,2013-05-17 04:41:00,
2013-05-17 05:46:00,43.3,39.7,29.79,NNE,27,4.6,4.6,87,0.00,CLR,,0.00,WeatherDisplay:10.37,2013-05-17 04:46:00,
2013-05-17 05:51:00,43.3,39.7,29.79,NW,325,3.5,3.5,87,0.00,CLR,,0.00,WeatherDisplay:10.37,2013-05-17 04:51:00,
2013-05-17 05:56:00,43.2,39.3,29.79,NNW,347,0.0,0.0,86,0.00,CLR,,0.00,WeatherDisplay:10.37,2013-05-17 04:56:00,
2013-05-17 06:01:00,43.2,39.6,29.79,North,349,1.2,1.2,87,0.00,CLR,,0.00,WeatherDisplay:10.37,2013-05-17 05:01:00,
2013-05-17 06:06:00,43.2,39.9,29.79,NW,309,2.0,2.0,88,0.00,CLR,,0.00,WeatherDisplay:10.37,2013-05-17 05:06:00,
2013-05-17 06:11:00,42.9,39.3,29.79,WNW,301,1.2,1.2,87,0.00,CLR,,0.00,WeatherDisplay:10.37,2013-05-17 05:11:00,
2013-05-17 06:16:00,42.8,39.5,29.80,WNW,300,1.2,1.2,88,0.00,CLR,,0.00,WeatherDisplay:10.37,2013-05-17 05:16:00,
2013-05-17 06:21:00,42.9,39.6,29.80,NW,304,1.2,1.2,88,0.00,CLR,,0.00,WeatherDisplay:10.37,2013-05-17 05:21:00,
2013-05-17 06:26:00,42.9,39.6,29.80,NW,304,1.2,1.2,88,0.00,CLR,,0.00,WeatherDisplay:10.37,2013-05-17 05:26:00,
2013-05-17 06:31:00,42.9,39.6,29.80,NW,304,1.2,1.2,88,0.00,CLR,,0.00,WeatherDisplay:10.37,2013-05-17 05:31:00,
2013-05-17 06:36:00,43.0,39.7,29.80,NW,304,1.2,1.2,88,0.00,CLR,,0.00,WeatherDisplay:10.37,2013-05-17 05:36:00,
2013-05-17 06:41:00,43.5,40.2,29.80,NW,304,0.0,0.0,88,0.00,CLR,,0.00,WeatherDisplay:10.37,2013-05-17 05:41:00,
2013-05-17 06:46:00,44.2,40.9,29.81,NW,304,0.0,0.0,88,0.00,CLR,,0.00,WeatherDisplay:10.37,2013-05-17 05:46:00,
2013-05-17 06:51:00,44.6,41.0,29.81,WNW,303,1.2,0.0,87,0.00,CLR,,0.00,WeatherDisplay:10.37,2013-05-17 05:51:00,
2013-05-17 06:56:00,44.9,40.7,29.81,WNW,299,0.0,0.0,85,0.00,CLR,,0.00,WeatherDisplay:10.37,2013-05-17 05:56:00,
2013-05-17 07:01:00,44.9,40.7,29.81,WNW,297,0.0,0.0,85,0.00,CLR,,0.00,WeatherDisplay:10.37,2013-05-17 06:01:00,
2013-05-17 07:06:00,45.2,41.0,29.81,WNW,297,0.0,0.0,85,0.00,CLR,,0.00,WeatherDisplay:10.37,2013-05-17 06:06:00,
2013-05-17 07:11:00,45.7,41.4,29.81,WNW,296,0.0,0.0,85,0.00,CLR,,0.00,WeatherDisplay:10.37,2013-05-17 06:11:00,
2013-05-17 07:16:00,46.1,41.8,29.81,WNW,295,0.0,0.0,85,0.00,CLR,,0.00,WeatherDisplay:10.37,2013-05-17 06:16:00,
2013-05-17 07:21:00,46.2,41.6,29.82,West,266,0.0,0.0,84,0.00,CLR,,0.00,WeatherDisplay:10.37,2013-05-17 06:21:00,
2013-05-17 07:26:00,46.1,41.5,29.82,WSW,252,0.0,0.0,84,0.00,CLR,,0.00,WeatherDisplay:10.37,2013-05-17 06:26:00,
2013-05-17 07:31:00,46.3,41.7,29.82,WSW,252,0.0,0.0,84,0.00,CLR,,0.00,WeatherDisplay:10.37,2013-05-17 06:31:00,
2013-05-17 07:36:00,46.9,42.6,29.82,WSW,251,0.0,0.0,85,0.00,CLR,,0.00,WeatherDisplay:10.37,2013-05-17 06:36:00,
2013-05-17 07:41:00,48.4,43.2,29.82,WSW,252,0.0,0.0,82,0.00,CLR,,0.00,WeatherDisplay:10.37,2013-05-17 06:41:00,
2013-05-17 07:46:00,48.9,42.3,29.83,SSW,195,0.0,0.0,78,0.00,CLR,,0.00,WeatherDisplay:10.37,2013-05-17 06:46:00,
2013-05-17 07:51:00,48.6,42.0,29.83,SSW,205,3.5,3.5,78,0.00,CLR,,0.00,WeatherDisplay:10.37,2013-05-17 06:51:00,
2013-05-17 07:56:00,48.6,42.4,29.83,SE,126,2.3,2.3,79,0.00,CLR,,0.00,WeatherDisplay:10.37,2013-05-17 06:56:00,
2013-05-17 08:01:00,48.5,42.3,29.83,SSE,150,3.5,3.5,79,0.00,CLR,,0.00,WeatherDisplay:10.37,2013-05-17 07:01:00,
2013-05-17 08:06:00,48.5,42.3,29.83,SE,143,3.5,3.5,79,0.00,CLR,,0.00,WeatherDisplay:10.37,2013-05-17 07:06:00,
2013-05-17 08:11:00,48.6,42.4,29.83,SE,128,3.0,3.0,79,0.00,CLR,,0.00,WeatherDisplay:10.37,2013-05-17 07:11:00,
2013-05-17 08:16:00,48.4,41.5,29.83,ESE,107,3.5,3.5,77,0.00,CLR,,0.00,WeatherDisplay:10.37,2013-05-17 07:16:00,
2013-05-17 08:21:00,48.3,41.8,29.84,East,96,3.5,3.5,78,0.00,CLR,,0.00,WeatherDisplay:10.37,2013-05-17 07:21:00,
2013-05-17 08:27:00,48.1,41.6,29.84,SE,126,3.5,3.5,78,0.00,CLR,,0.00,WeatherDisplay:10.37,2013-05-17 07:27:00,
2013-05-17 08:32:00,48.3,41.8,29.84,SSE,150,3.5,3.5,78,0.00,CLR,,0.00,WeatherDisplay:10.37,2013-05-17 07:32:00,
2013-05-17 08:37:00,48.5,41.6,29.84,SE,133,3.5,3.5,77,0.00,CLR,,0.00,WeatherDisplay:10.37,2013-05-17 07:37:00,
2013-05-17 08:42:00,48.7,41.5,29.84,SE,140,3.5,3.5,76,0.00,CLR,,0.00,WeatherDisplay:10.37,2013-05-17 07:42:00,
2013-05-17 08:47:00,48.8,41.6,29.84,SE,138,2.3,2.3,76,0.00,CLR,,0.00,WeatherDisplay:10.37,2013-05-17 07:47:00,
2013-05-17 08:52:00,49.1,42.2,29.84,SSE,164,3.5,3.5,77,0.00,CLR,,0.00,WeatherDisplay:10.37,2013-05-17 07:52:00,
2013-05-17 08:57:00,49.3,41.7,29.84,SSE,153,2.3,2.3,75,0.00,CLR,,0.00,WeatherDisplay:10.37,2013-05-17 07:57:00,
2013-05-17 09:02:00,49.6,42.0,29.84,East,100,2.3,2.3,75,0.00,CLR,,0.00,WeatherDisplay:10.37,2013-05-17 08:02:00,
2013-05-17 10:36:00,53.4,45.0,29.85,South,174,3.0,3.0,73,0.00,CLR,,0.00,WeatherDisplay:10.37,2013-05-17 09:36:00,
2013-05-17 10:41:00,53.7,43.0,29.85,South,174,4.0,4.0,67,0.00,CLR,,0.00,WeatherDisplay:10.37,2013-05-17 09:41:00,
2013-05-17 10:46:00,54.2,42.7,29.85,South,186,3.5,3.5,65,0.00,CLR,,0.00,WeatherDisplay:10.37,2013-05-17 09:46:00,
2013-05-17 10:51:00,54.1,40.9,29.85,SW,214,5.8,5.8,61,0.00,CLR,,0.00,WeatherDisplay:10.37,2013-05-17 09:51:00,
2013-05-17 10:56:00,54.2,42.3,29.85,SSE,150,4.6,4.6,64,0.00,CLR,,0.00,WeatherDisplay:10.37,2013-05-17 09:56:00,
2013-05-17 11:01:00,54.5,40.9,29.85,SSE,160,5.0,5.0,60,0.00,CLR,,0.00,WeatherDisplay:10.37,2013-05-17 10:01:00,
2013-05-17 11:06:00,54.8,40.7,29.85,South,188,3.5,3.5,59,0.00,CLR,,0.00,WeatherDisplay:10.37,2013-05-17 10:06:00,
2013-05-17 11:11:00,55.0,40.9,29.85,SSW,193,4.0,4.0,59,0.00,CLR,,0.00,WeatherDisplay:10.37,2013-05-17 10:11:00,
2013-05-17 11:16:00,54.9,41.3,29.85,WSW,253,3.5,3.5,60,0.00,CLR,,0.00,WeatherDisplay:10.37,2013-05-17 10:16:00,
2013-05-17 11:21:00,56.0,41.4,29.85,West,259,2.3,2.3,58,0.00,CLR,,0.00,WeatherDisplay:10.37,2013-05-17 10:21:00,
2013-05-17 11:26:00,57.4,44.1,29.85,WSW,254,2.3,2.3,61,0.00,CLR,,0.00,WeatherDisplay:10.37,2013-05-17 10:26:00,
2013-05-17 11:31:00,58.4,42.8,29.85,WSW,254,2.3,2.3,56,0.00,CLR,,0.00,WeatherDisplay:10.37,2013-05-17 10:31:00,
2013-05-17 11:36:00,58.6,41.0,29.85,WSW,257,2.3,2.3,52,0.00,CLR,,0.00,WeatherDisplay:10.37,2013-05-17 10:36:00,
2013-05-17 11:41:00,58.2,39.6,29.85,WSW,247,2.3,2.3,50,0.00,CLR,,0.00,WeatherDisplay:10.37,2013-05-17 10:41:00,
2013-05-17 11:46:00,57.6,42.0,29.85,WSW,238,3.5,3.5,56,0.00,CLR,,0.00,WeatherDisplay:10.37,2013-05-17 10:46:00,
2013-05-17 11:51:00,57.2,39.7,29.85,SSW,205,3.5,3.5,52,0.00,CLR,,0.00,WeatherDisplay:10.37,2013-05-17 10:51:00,
2013-05-17 11:56:00,56.9,39.4,29.85,WSW,242,2.3,2.3,52,0.00,CLR,,0.00,WeatherDisplay:10.37,2013-05-17 10:56:00,
2013-05-17 12:01:00,58.0,42.4,29.85,West,259,3.5,3.5,56,0.00,CLR,,0.00,WeatherDisplay:10.37,2013-05-17 11:01:00,
2013-05-17 12:06:00,59.4,44.6,29.84,WSW,254,2.3,2.3,58,0.00,CLR,,0.00,WeatherDisplay:10.37,2013-05-17 11:06:00,
2013-05-17 12:11:00,59.6,41.4,29.84,WSW,252,3.5,3.5,51,0.00,CLR,,0.00,WeatherDisplay:10.37,2013-05-17 11:11:00,
2013-05-17 12:16:00,59.0,40.4,29.84,WSW,242,3.5,3.5,50,0.00,CLR,,0.00,WeatherDisplay:10.37,2013-05-17 11:16:00,
2013-05-17 12:22:00,57.9,39.9,29.85,SSE,159,4.0,4.0,51,0.00,CLR,,0.00,WeatherDisplay:10.37,2013-05-17 11:22:00,
2013-05-17 12:27:00,58.1,39.5,29.84,SW,222,3.5,3.5,50,0.00,CLR,,0.00,WeatherDisplay:10.37,2013-05-17 11:27:00,
2013-05-17 12:32:00,58.3,40.2,29.85,SSE,151,5.8,5.8,51,0.00,CLR,,0.00,WeatherDisplay:10.37,2013-05-17 11:32:00,
2013-05-17 12:37:00,58.7,40.6,29.85,SW,226,2.3,2.3,51,0.00,CLR,,0.00,WeatherDisplay:10.37,2013-05-17 11:37:00,
2013-05-17 12:42:00,58.3,40.2,29.84,South,189,3.5,3.5,51,0.00,CLR,,0.00,WeatherDisplay:10.37,2013-05-17 11:42:00,
2013-05-17 12:47:00,58.0,40.0,29.84,SSW,205,5.8,5.8,51,0.00,CLR,,0.00,WeatherDisplay:10.37,2013-05-17 11:47:00,
2013-05-17 12:52:00,58.0,40.0,29.84,SW,235,3.5,3.5,51,0.00,CLR,,0.00,WeatherDisplay:10.37,2013-05-17 11:52:00,
2013-05-17 12:57:00,58.4,39.3,29.84,SSW,211,5.0,5.0,49,0.00,CLR,,0.00,WeatherDisplay:10.37,2013-05-17 11:57:00,
2013-05-17 13:02:00,58.7,41.6,29.84,SSW,197,4.6,4.6,53,0.00,CLR,,0.00,WeatherDisplay:10.37,2013-05-17 12:02:00,
2013-05-17 13:07:00,58.5,41.4,29.84,SE,131,6.0,6.0,53,0.00,CLR,,0.00,WeatherDisplay:10.37,2013-05-17 12:07:00,
2013-05-17 13:12:00,57.8,40.3,29.85,SE,133,7.0,7.0,52,0.00,CLR,,0.00,WeatherDisplay:10.37,2013-05-17 12:12:00,
2013-05-17 13:17:00,57.6,39.6,29.85,ESE,123,6.9,6.9,51,0.00,CLR,,0.00,WeatherDisplay:10.37,2013-05-17 12:17:00,
2013-05-17 13:22:00,57.5,42.4,29.85,ESE,123,6.9,6.9,57,0.00,CLR,,0.00,WeatherDisplay:10.37,2013-05-17 12:22:00,
2013-05-17 13:27:00,57.2,40.7,29.85,SE,145,6.0,6.0,54,0.00,CLR,,0.00,WeatherDisplay:10.37,2013-05-17 12:27:00,
2013-05-17 13:32:00,57.0,41.0,29.85,ESE,123,5.0,5.0,55,0.00,CLR,,0.00,WeatherDisplay:10.37,2013-05-17 12:32:00,
2013-05-17 13:37:00,56.8,40.8,29.85,ESE,106,5.8,5.8,55,0.00,CLR,,0.00,WeatherDisplay:10.37,2013-05-17 12:37:00,
2013-05-17 13:42:00,56.4,40.4,29.85,ESE,120,8.0,8.0,55,0.00,CLR,,0.00,WeatherDisplay:10.37,2013-05-17 12:42:00,
2013-05-17 13:47:00,56.3,39.4,29.85,ESE,110,6.0,6.0,53,0.00,CLR,,0.00,WeatherDisplay:10.37,2013-05-17 12:47:00,
2013-05-17 13:52:00,56.4,40.0,29.85,ESE,115,5.8,5.8,54,0.00,CLR,,0.00,WeatherDisplay:10.37,2013-05-17 12:52:00,
2013-05-17 13:58:00,56.0,40.1,29.85,ESE,115,5.8,5.8,55,0.00,CLR,,0.00,WeatherDisplay:10.37,2013-05-17 12:58:00,
2013-05-17 14:03:00,56.3,40.3,29.85,ESE,103,3.5,3.5,55,0.00,CLR,,0.00,WeatherDisplay:10.37,2013-05-17 13:03:00,
2013-05-17 14:08:00,56.6,39.7,29.85,SE,129,2.3,2.3,53,0.00,CLR,,0.00,WeatherDisplay:10.37,2013-05-17 13:08:00,
2013-05-17 14:13:00,57.1,39.6,29.85,SE,131,1.2,1.2,52,0.00,CLR,,0.00,WeatherDisplay:10.37,2013-05-17 13:13:00,
2013-05-17 14:18:00,58.1,42.0,29.85,SSE,155,1.2,1.2,55,0.00,CLR,,0.00,WeatherDisplay:10.37,2013-05-17 13:18:00,
2013-05-17 14:23:00,58.7,40.1,29.85,South,183,3.5,3.5,50,0.00,CLR,,0.00,WeatherDisplay:10.37,2013-05-17 13:23:00,
2013-05-17 14:28:00,59.0,40.4,29.84,SW,224,4.6,4.6,50,0.00,CLR,,0.00,WeatherDisplay:10.37,2013-05-17 13:28:00,
2013-05-17 14:33:00,58.5,40.9,29.84,SW,215,3.5,3.5,52,0.00,CLR,,0.00,WeatherDisplay:10.37,2013-05-17 13:33:00,
2013-05-17 14:38:00,58.5,40.9,29.84,WSW,250,3.5,3.5,52,0.00,CLR,,0.00,WeatherDisplay:10.37,2013-05-17 13:38:00,
2013-05-17 14:43:00,58.7,40.6,29.84,WSW,257,2.3,2.3,51,0.00,CLR,,0.00,WeatherDisplay:10.37,2013-05-17 13:43:00,
2013-05-17 14:48:00,58.8,41.2,29.84,West,259,3.5,3.5,52,0.00,CLR,,0.00,WeatherDisplay:10.37,2013-05-17 13:48:00,
2013-05-17 14:53:00,58.9,41.8,29.84,West,276,3.5,3.5,53,0.00,CLR,,0.00,WeatherDisplay:10.37,2013-05-17 13:53:00,
2013-05-17 14:58:00,59.0,40.9,29.84,WNW,291,3.5,3.5,51,0.00,CLR,,0.00,WeatherDisplay:10.37,2013-05-17 13:58:00,
2013-05-17 15:03:00,58.9,39.2,29.84,West,275,6.9,6.9,48,0.00,CLR,,0.00,WeatherDisplay:10.37,2013-05-17 14:03:00,
2013-05-17 15:08:00,58.9,39.8,29.84,WNW,293,8.1,8.1,49,0.00,CLR,,0.00,WeatherDisplay:10.37,2013-05-17 14:08:00,
2013-05-17 15:13:00,58.9,40.8,29.84,WNW,297,5.8,5.8,51,0.00,CLR,,0.00,WeatherDisplay:10.37,2013-05-17 14:13:00,
2013-05-17 15:18:00,59.0,39.9,29.84,West,280,6.9,6.9,49,0.00,CLR,,0.00,WeatherDisplay:10.37,2013-05-17 14:18:00,
2013-05-17 15:23:00,59.0,39.3,29.84,WNW,289,8.1,8.1,48,0.00,CLR,,0.00,WeatherDisplay:10.37,2013-05-17 14:23:00,
2013-05-17 15:28:00,59.0,38.8,29.84,WNW,290,3.5,3.5,47,0.00,CLR,,0.00,WeatherDisplay:10.37,2013-05-17 14:28:00,
2013-05-17 15:33:00,59.2,40.6,29.85,NW,314,3.5,3.5,50,0.00,CLR,,0.00,WeatherDisplay:10.37,2013-05-17 14:33:00,
2013-05-17 15:38:00,59.7,37.7,29.85,North,8,3.5,3.5,44,0.00,CLR,,0.00,WeatherDisplay:10.37,2013-05-17 14:38:00,
2013-05-17 15:43:00,59.9,37.3,29.84,WNW,301,4.0,4.0,43,0.00,CLR,,0.00,WeatherDisplay:10.37,2013-05-17 14:43:00,
2013-05-17 15:48:00,60.1,38.1,29.84,WNW,295,5.0,5.0,44,0.00,CLR,,0.00,WeatherDisplay:10.37,2013-05-17 14:48:00,
2013-05-17 15:53:00,59.7,37.7,29.84,WNW,301,8.1,8.1,44,0.00,CLR,,0.00,WeatherDisplay:10.37,2013-05-17 14:53:00,
2013-05-17 15:58:00,59.3,39.1,29.84,WNW,301,6.9,6.9,47,0.00,CLR,,0.00,WeatherDisplay:10.37,2013-05-17 14:58:00,
2013-05-17 16:03:00,59.1,39.4,29.84,WNW,297,8.0,8.0,48,0.00,CLR,,0.00,WeatherDisplay:10.37,2013-05-17 15:03:00,
2013-05-17 16:08:00,59.1,39.9,29.84,WNW,297,5.8,5.8,49,0.00,CLR,,0.00,WeatherDisplay:10.37,2013-05-17 15:08:00,
2013-05-17 16:13:00,59.1,38.9,29.84,WNW,292,4.6,4.6,47,0.00,CLR,,0.00,WeatherDisplay:10.37,2013-05-17 15:13:00,
2013-05-17 16:18:00,59.2,40.6,29.84,West,278,3.5,3.5,50,0.00,CLR,,0.00,WeatherDisplay:10.37,2013-05-17 15:18:00,
2013-05-17 16:23:00,59.2,39.0,29.84,WNW,288,5.0,5.0,47,0.00,CLR,,0.00,WeatherDisplay:10.37,2013-05-17 15:23:00,
2013-05-17 16:28:00,59.3,39.6,29.84,West,272,4.6,4.6,48,0.00,CLR,,0.00,WeatherDisplay:10.37,2013-05-17 15:28:00,
2013-05-17 16:33:00,59.3,39.6,29.84,WNW,293,5.8,5.8,48,0.00,CLR,,0.00,WeatherDisplay:10.37,2013-05-17 15:33:00,
2013-05-17 16:38:00,59.3,39.6,29.84,WNW,283,4.6,4.6,48,0.00,CLR,,0.00,WeatherDisplay:10.37,2013-05-17 15:38:00,
2013-05-17 16:43:00,59.5,39.2,29.84,WNW,289,3.5,3.5,47,0.00,CLR,,0.00,WeatherDisplay:10.37,2013-05-17 15:43:00,
2013-05-17 16:48:00,59.7,39.4,29.84,WSW,257,5.8,5.8,47,0.00,CLR,,0.00,WeatherDisplay:10.37,2013-05-17 15:48:00,
2013-05-17 16:53:00,60.0,41.8,29.84,West,274,4.6,4.6,51,0.00,CLR,,0.00,WeatherDisplay:10.37,2013-05-17 15:53:00,
2013-05-17 16:58:00,59.7,38.9,29.84,WSW,250,5.8,5.8,46,0.00,CLR,,0.00,WeatherDisplay:10.37,2013-05-17 15:58:00,
2013-05-17 17:03:00,59.5,38.1,29.84,West,276,6.9,6.9,45,0.00,CLR,,0.00,WeatherDisplay:10.37,2013-05-17 16:03:00,
2013-05-17 17:08:00,60.3,37.7,29.84,West,280,9.2,9.2,43,0.00,CLR,,0.00,WeatherDisplay:10.37,2013-05-17 16:08:00,
2013-05-17 17:13:00,61.3,36.1,29.84,NW,317,10.4,10.4,39,0.00,CLR,,0.00,WeatherDisplay:10.37,2013-05-17 16:13:00,
2013-05-17 17:19:00,61.6,35.7,29.84,North,351,8.1,8.1,38,0.00,CLR,,0.00,WeatherDisplay:10.37,2013-05-17 16:19:00,
2013-05-17 17:25:00,61.3,36.1,29.84,NNE,18,3.5,3.5,39,0.00,CLR,,0.00,WeatherDisplay:10.37,2013-05-17 16:25:00,
2013-05-17 17:30:00,61.0,35.8,29.84,North,351,8.1,8.1,39,0.00,CLR,,0.00,WeatherDisplay:10.37,2013-05-17 16:30:00,
2013-05-17 17:35:00,61.1,35.3,29.84,NW,323,3.5,3.5,38,0.00,CLR,,0.00,WeatherDisplay:10.37,2013-05-17 16:35:00,
2013-05-17 17:40:00,61.2,35.4,29.84,NNW,345,5.8,5.8,38,0.00,CLR,,0.00,WeatherDisplay:10.37,2013-05-17 16:40:00,
2013-05-17 17:45:00,61.8,36.6,29.83,NW,318,7.0,7.0,39,0.00,CLR,,0.00,WeatherDisplay:10.37,2013-05-17 16:45:00,
2013-05-17 17:50:00,62.5,36.5,29.83,North,359,4.6,4.6,38,0.00,CLR,,0.00,WeatherDisplay:10.37,2013-05-17 16:50:00,
2013-05-17 17:55:00,62.4,36.4,29.83,NNE,27,5.8,5.8,38,0.00,CLR,,0.00,WeatherDisplay:10.37,2013-05-17 16:55:00,
2013-05-17 18:00:00,62.3,36.4,29.83,NW,318,3.5,3.5,38,0.00,CLR,,0.00,WeatherDisplay:10.37,2013-05-17 17:00:00,
2013-05-17 18:05:00,62.3,35.7,29.84,NNW,330,3.5,3.5,37,0.00,CLR,,0.00,WeatherDisplay:10.37,2013-05-17 17:05:00,
2013-05-17 18:10:00,62.3,35.0,29.84,North,354,10.4,10.4,36,0.00,CLR,,0.00,WeatherDisplay:10.37,2013-05-17 17:10:00,
2013-05-17 18:15:00,61.8,35.2,29.84,NNW,335,8.1,8.1,37,0.00,CLR,,0.00,WeatherDisplay:10.37,2013-05-17 17:15:00,
2013-05-17 18:20:00,61.5,35.6,29.84,North,355,5.0,5.0,38,0.00,CLR,,0.00,WeatherDisplay:10.37,2013-05-17 17:20:00,
2013-05-17 18:25:00,61.7,36.5,29.84,West,280,4.0,4.0,39,0.00,CLR,,0.00,WeatherDisplay:10.37,2013-05-17 17:25:00,
2013-05-17 18:30:00,61.8,36.6,29.84,NNW,328,4.0,4.0,39,0.00,CLR,,0.00,WeatherDisplay:10.37,2013-05-17 17:30:00,
2013-05-17 18:35:00,61.6,35.7,29.84,NNW,332,5.0,5.0,38,0.00,CLR,,0.00,WeatherDisplay:10.37,2013-05-17 17:35:00,
2013-05-17 18:40:00,61.8,35.9,29.84,NW,323,6.9,6.9,38,0.00,CLR,,0.00,WeatherDisplay:10.37,2013-05-17 17:40:00,
2013-05-17 18:45:00,62.0,35.4,29.84,North,360,6.9,6.9,37,0.00,CLR,,0.00,WeatherDisplay:10.37,2013-05-17 17:45:00,
2013-05-17 18:50:00,62.2,36.9,29.84,NW,305,2.3,2.3,39,0.00,CLR,,0.00,WeatherDisplay:10.37,2013-05-17 17:50:00,
2013-05-17 18:55:00,62.1,34.8,29.84,North,9,4.6,4.6,36,0.00,CLR,,0.00,WeatherDisplay:10.37,2013-05-17 17:55:00,
2013-05-17 19:00:00,61.7,35.1,29.84,NNE,18,8.1,8.1,37,0.00,CLR,,0.00,WeatherDisplay:10.37,2013-05-17 18:00:00,
2013-05-17 19:05:00,61.4,35.5,29.84,NW,318,5.8,5.8,38,0.00,CLR,,0.00,WeatherDisplay:10.37,2013-05-17 18:05:00,
2013-05-17 19:10:00,61.6,35.7,29.84,North,8,6.9,6.9,38,0.00,CLR,,0.00,WeatherDisplay:10.37,2013-05-17 18:10:00,
2013-05-17 19:15:00,61.8,35.9,29.84,NW,320,10.4,10.4,38,0.00,CLR,,0.00,WeatherDisplay:10.37,2013-05-17 18:15:00,
2013-05-17 19:20:00,61.9,36.0,29.85,WNW,285,4.6,4.6,38,0.00,CLR,,0.00,WeatherDisplay:10.37,2013-05-17 18:20:00,
2013-05-17 19:25:00,61.7,36.5,29.85,WNW,299,10.4,10.4,39,0.00,CLR,,0.00,WeatherDisplay:10.37,2013-05-17 18:25:00,
2013-05-17 19:30:00,61.6,37.0,29.85,NNW,333,10.4,10.4,40,0.00,CLR,,0.00,WeatherDisplay:10.37,2013-05-17 18:30:00,
2013-05-17 19:35:00,61.3,37.4,29.85,NW,307,4.6,4.6,41,0.00,CLR,,0.00,WeatherDisplay:10.37,2013-05-17 18:35:00,
2013-05-17 19:41:00,61.1,36.6,29.85,NNW,328,10.4,10.4,40,0.00,CLR,,0.00,WeatherDisplay:10.37,2013-05-17 18:41:00,
2013-05-17 19:46:00,60.9,37.0,29.85,WNW,290,9.2,9.2,41,0.00,CLR,,0.00,WeatherDisplay:10.37,2013-05-17 18:46:00,
2013-05-17 19:51:00,60.6,38.6,29.86,North,359,6.9,6.9,44,0.00,CLR,,0.00,WeatherDisplay:10.37,2013-05-17 18:51:00,
2013-05-17 19:57:00,60.4,40.1,29.85,NNE,25,3.5,3.5,47,0.00,CLR,,0.00,WeatherDisplay:10.37,2013-05-17 18:57:00,
2013-05-17 20:02:00,60.4,40.1,29.85,North,356,4.6,4.6,47,0.00,CLR,,0.00,WeatherDisplay:10.37,2013-05-17 19:02:00,
2013-05-17 20:07:00,60.1,39.2,29.86,NNW,328,6.9,6.9,46,0.00,CLR,,0.00,WeatherDisplay:10.37,2013-05-17 19:07:00,
2013-05-17 20:12:00,59.6,39.3,29.86,NW,313,4.6,4.6,47,0.00,CLR,,0.00,WeatherDisplay:10.37,2013-05-17 19:12:00,
2013-05-17 20:17:00,59.2,39.5,29.86,North,351,9.2,9.2,48,0.00,CLR,,0.00,WeatherDisplay:10.37,2013-05-17 19:17:00,
2013-05-17 20:22:00,59.0,39.9,29.85,NNW,341,6.0,6.0,49,0.00,CLR,,0.00,WeatherDisplay:10.37,2013-05-17 19:22:00,
2013-05-17 20:27:00,58.6,40.0,29.86,NNW,333,10.0,10.0,50,0.00,CLR,,0.00,WeatherDisplay:10.37,2013-05-17 19:27:00,
2013-05-17 20:32:00,58.3,39.7,29.86,NW,316,8.1,8.1,50,0.00,CLR,,0.00,WeatherDisplay:10.37,2013-05-17 19:32:00,
2013-05-17 20:38:00,58.0,40.0,29.86,WNW,296,6.9,6.9,51,0.00,CLR,,0.00,WeatherDisplay:10.37,2013-05-17 19:38:00,
2013-05-17 20:43:00,57.7,40.2,29.86,NW,324,3.5,3.5,52,0.00,CLR,,0.00,WeatherDisplay:10.37,2013-05-17 19:43:00,
2013-05-17 20:48:00,57.3,39.8,29.86,WNW,295,5.8,5.8,52,0.00,CLR,,0.00,WeatherDisplay:10.37,2013-05-17 19:48:00,
2013-05-17 20:53:00,56.9,39.9,29.86,North,351,8.1,8.1,53,0.00,CLR,,0.00,WeatherDisplay:10.37,2013-05-17 19:53:00,
2013-05-17 20:58:00,56.6,40.1,29.86,North,349,9.2,9.2,54,0.00,CLR,,0.00,WeatherDisplay:10.37,2013-05-17 19:58:00,
2013-05-17 21:03:00,56.3,39.9,29.86,NNW,335,9.2,9.2,54,0.00,CLR,,0.00,WeatherDisplay:10.37,2013-05-17 20:03:00,
2013-05-17 21:08:00,55.9,40.0,29.87,NW,309,5.8,5.8,55,0.00,CLR,,0.00,WeatherDisplay:10.37,2013-05-17 20:08:00,
2013-05-17 21:13:00,55.6,40.1,29.87,NW,310,5.8,5.8,56,0.00,CLR,,0.00,WeatherDisplay:10.37,2013-05-17 20:13:00,
2013-05-17 21:18:00,55.3,39.9,29.87,NW,310,6.9,6.9,56,0.00,CLR,,0.00,WeatherDisplay:10.37,2013-05-17 20:18:00,
2013-05-17 21:23:00,55.0,40.0,29.87,NW,313,3.5,3.5,57,0.00,CLR,,0.00,WeatherDisplay:10.37,2013-05-17 20:23:00,
2013-05-17 21:28:00,54.6,40.1,29.87,WNW,298,3.5,3.5,58,0.00,CLR,,0.00,WeatherDisplay:10.37,2013-05-17 20:28:00,
2013-05-17 21:33:00,54.2,40.2,29.88,NW,305,3.5,3.5,59,0.00,CLR,,0.00,WeatherDisplay:10.37,2013-05-17 20:33:00,
2013-05-17 21:38:00,53.9,39.9,29.88,NNW,343,6.0,6.0,59,0.00,CLR,,0.00,WeatherDisplay:10.37,2013-05-17 20:38:00,
2013-05-17 21:43:00,53.8,40.2,29.88,WNW,300,6.9,6.9,60,0.00,CLR,,0.00,WeatherDisplay:10.37,2013-05-17 20:43:00,
2013-05-17 21:48:00,53.6,40.0,29.88,North,6,9.2,9.2,60,0.00,CLR,,0.00,WeatherDisplay:10.37,2013-05-17 20:48:00,
2013-05-17 21:53:00,53.5,39.9,29.88,NNW,332,9.2,9.2,60,0.00,CLR,,0.00,WeatherDisplay:10.37,2013-05-17 20:53:00,
2013-05-17 21:58:00,53.5,39.9,29.89,NNE,31,5.8,5.8,60,0.00,CLR,,0.00,WeatherDisplay:10.37,2013-05-17 20:58:00,
2013-05-17 22:03:00,53.5,39.9,29.89,NNW,335,4.6,4.6,60,0.00,CLR,,0.00,WeatherDisplay:10.37,2013-05-17 21:03:00,
2013-05-17 22:08:00,53.4,39.4,29.89,NW,309,5.8,5.8,59,0.00,CLR,,0.00,WeatherDisplay:10.37,2013-05-17 21:08:00,
2013-05-17 22:13:00,53.3,39.8,29.89,NNW,327,4.6,4.6,60,0.00,CLR,,0.00,WeatherDisplay:10.37,2013-05-17 21:13:00,
2013-05-17 22:18:00,52.9,39.8,29.89,NW,306,3.5,3.5,61,0.00,CLR,,0.00,WeatherDisplay:10.37,2013-05-17 21:18:00,
2013-05-17 22:23:00,52.6,39.9,29.89,WNW,294,3.5,3.5,62,0.00,CLR,,0.00,WeatherDisplay:10.37,2013-05-17 21:23:00,
2013-05-17 22:28:00,52.3,39.7,29.90,NW,316,3.5,3.5,62,0.00,CLR,,0.00,WeatherDisplay:10.37,2013-05-17 21:28:00,
2013-05-17 22:33:00,51.9,40.1,29.89,NW,304,3.5,3.5,64,0.00,CLR,,0.00,WeatherDisplay:10.37,2013-05-17 21:33:00,
2013-05-17 22:38:00,51.7,39.9,29.89,NW,320,4.6,4.6,64,0.00,CLR,,0.00,WeatherDisplay:10.37,2013-05-17 21:38:00,
2013-05-17 22:43:00,51.6,40.2,29.89,WNW,300,5.8,5.8,65,0.00,CLR,,0.00,WeatherDisplay:10.37,2013-05-17 21:43:00,
2013-05-17 22:48:00,51.4,40.0,29.88,NW,309,6.9,6.9,65,0.00,CLR,,0.00,WeatherDisplay:10.37,2013-05-17 21:48:00,
2013-05-17 22:53:00,51.3,40.3,29.89,WNW,285,2.3,2.3,66,0.00,CLR,,0.00,WeatherDisplay:10.37,2013-05-17 21:53:00,
2013-05-17 22:58:00,51.2,40.2,29.89,WNW,297,3.5,3.5,66,0.00,CLR,,0.00,WeatherDisplay:10.37,2013-05-17 21:58:00,
2013-05-17 23:03:00,51.3,40.7,29.89,NW,304,6.9,6.9,67,0.00,CLR,,0.00,WeatherDisplay:10.37,2013-05-17 22:03:00,
2013-05-17 23:08:00,51.4,40.8,29.89,WNW,293,2.3,2.3,67,0.00,CLR,,0.00,WeatherDisplay:10.37,2013-05-17 22:08:00,
2013-05-17 23:13:00,51.4,41.2,29.89,WNW,290,3.5,3.5,68,0.00,CLR,,0.00,WeatherDisplay:10.37,2013-05-17 22:13:00,
2013-05-17 23:18:00,51.4,41.2,29.89,WNW,301,1.2,1.2,68,0.00,CLR,,0.00,WeatherDisplay:10.37,2013-05-17 22:18:00,
2013-05-17 23:23:00,51.3,41.5,29.89,WNW,293,3.5,3.5,69,0.00,CLR,,0.00,WeatherDisplay:10.37,2013-05-17 22:23:00,
2013-05-17 23:28:00,51.3,41.8,29.88,WNW,290,3.5,3.5,70,0.00,CLR,,0.00,WeatherDisplay:10.37,2013-05-17 22:28:00,
2013-05-17 23:33:00,51.3,42.2,29.89,WNW,293,3.5,3.5,71,0.00,CLR,,0.00,WeatherDisplay:10.37,2013-05-17 22:33:00,
2013-05-17 23:38:00,51.4,42.7,29.89,WNW,296,6.9,6.9,72,0.00,CLR,,0.00,WeatherDisplay:10.37,2013-05-17 22:38:00,
2013-05-17 23:43:00,51.5,42.8,29.88,NW,308,6.9,6.9,72,0.00,CLR,,0.00,WeatherDisplay:10.37,2013-05-17 22:43:00,
2013-05-17 23:48:00,51.4,42.7,29.88,WNW,282,3.5,3.5,72,0.00,CLR,,0.00,WeatherDisplay:10.37,2013-05-17 22:48:00,
2013-05-17 23:53:00,51.4,42.7,29.88,WNW,292,5.8,5.8,72,0.00,CLR,,0.00,WeatherDisplay:10.37,2013-05-17 22:53:00,
2013-05-17 23:58:00,51.3,42.6,29.88,WNW,296,5.0,5.0,72,0.00,CLR,,0.00,WeatherDisplay:10.37,2013-05-17 22:58:00,